星链-5242 (STARLINK-5242 )

导读 | 星芒AI

STARLINK-5242 是 SpaceX 星链计划中的一颗低轨通信卫星,属于星链第二代(Gen2)星座的一部分。该卫星于2023年发射,运行在约550公里高度的近地轨道,旨在为全球用户提供高速、低延迟的互联网服务。它采用先进通信技术,支持宽带数据传输,并具备自动避撞功能,以确保太空安全。星链计划通过部署数千颗此类卫星,构建覆盖全球的卫星互联网网络,服务于偏远地区及传统网络难以覆盖的区域。

基本信息
目录编号:
54173
目录名称:
STARLINK-5242
国际标识:
2022-141S
轨道中心:
EARTH
卫星名称:
星链-5242
卫星全名:
星链-5242 (STARLINK-5242 )
卫星状态:
在轨 (已飞行1150 天)
发射日期:
2022-10-28 UTC
国别 :
美国 (US)
星等 :
--
轨道信息
数据来源 国际轨道数据 AOE轨道数据
星历时间 2025-12-21T12:41:54+0800
6小时前
查看轨道信息
2025-12-17T06:00:00+0800
4天前
查看轨道信息
半长轴 6917.907km 6917.89km
偏心率 0.0001327 0.0001321
轨道倾角 53.218° 53.219°
近地点辐角 85.161° 82.072°
升交点赤经 356.077° 15.288°
平近点角 274.953° 62.073°
近地点 538.851km 538.841km
远地点 540.689km 540.669km
周期 95.438分钟 95.438分钟
每日圈数 15.088313 15.088371
详细信息
固有亮度:
5
最大亮度:
2.5
卫星平台:
Starlink v1.5
覆盖范围:
全球
运营商:
太空探索技术公司
运营商所在国:
美国
制造商(研发单位):
太空探索技术公司
制造商所在国:
美国
使用方式:
暂无
卫星简介
星链(Starlink)计划是由太空探索技术公司(SpaceX)提出的一个巨型低轨卫星互联网星座项目,计划在2019年至2024年间在太空搭建由约1.2万颗卫星组成的“星链”网络,其中1584颗将部署在地球上空550千米处的近地轨道,并从2020年开始工作。该卫星仍在工作。
2D轨道图
3D轨道图
轨道高度分析图
轨道倾角分析图
轨道综合分析图
查看轨道综合分析图